[[{"header":{"parameterUnit":"m.s-1","parameterCategory":1,"la1":30.2991,"la2":30.254,"lo1":-89.0895,"lo2":-89.0444,"dx":0.0017,"dy":0.0017,"nx":28,"ny":28,"refTime":"2022-12-29T09:00:00:Z","depth":0,"parameterNumber":2,"parameterNumberName":"U-component_of_WINDS"},"data":[0,0,0,0,0,0,0,0,0,0,0,0,0,0,0,0,0,0,0,0,0,0,0,0,0,0,0,0,0,0,0,0,0,0,0,0,0,0,0,0,0,0,0,0,0,0,0,0,0,0,0,0,0,0,0,0,0,0,-4.3471,-4.3472,0,-4.3522,-4.3523,-4.3523,-4.3483,-4.3481,-4.3479,-4.3478,-4.3528,-4.353,-4.3533,0,0,0,0,0,0,0,0,0,0,0,0,0,-4.3338,-4.334,-4.3471,-4.3472,-4.3472,-4.3522,-4.3523,-4.3524,-4.3483,-4.3481,-4.3479,-4.3477,-4.3527,-4.353,-4.3534,0,0,0,0,0,0,0,0,0,0,0,0,0,-4.3393,-4.3341,-4.3471,-4.3458,-4.3458,-4.3522,-4.3523,-4.3524,-4.3483,-4.3481,-4.3478,-4.3476,-4.3525,-4.353,-4.3534,-4.3613,0,0,-4.3548,-4.3549,0,0,0,0,0,0,0,0,-4.339,-4.3398,-4.3459,-4.3459,-4.3459,-4.3494,-4.3494,-4.3554,-4.3484,-4.3474,-4.3478,-4.3475,-4.3518,-4.3523,-4.3538,-4.3615,-4.3618,-4.3548,-4.3551,-4.3552,-4.3554,0,0,0,0,0,0,0,-4.3386,-4.3395,-4.3491,-4.346,-4.346,-4.345,-4.3455,-4.3505,-4.351,-4.3474,-4.3471,-4.3478,-4.3517,-4.3534,-4.3539,-4.3618,-4.3548,-4.3552,-4.3554,-4.3556,-4.3765,-4.3767,0,0,0,0,0,0,-4.3384,-4.3392,-4.349,-4.3493,-4.3417,-4.3454,-4.346,-4.3485,-4.3509,-4.351,-4.348,-4.3476,-4.3528,-4.3534,-4.3541,-4.3635,-4.3552,-4.3557,-4.3559,-4.3762,-4.3765,-4.3768,0,0,0,0,0,0,-4.3381,-4.3393,-4.3488,-4.3442,-4.3453,-4.3459,-4.3488,-4.3487,-4.3504,-4.3514,-4.3514,-4.3497,-4.3526,-4.3534,-4.3596,-4.3636,-4.3559,-4.3563,-4.3758,-4.3763,-4.3767,-4.3824,0,0,0,0,0,0,-4.3377,-4.3392,-4.3422,-4.3443,-4.3456,-4.3542,-4.349,-4.349,-4.3512,-4.3507,-4.3529,-4.353,-4.3525,-4.359,-4.36,-4.3641,-4.3566,-4.3755,-4.376,-4.3765,-4.3818,-4.383,-4.3839,0,0,0,0,0,-4.3373,-4.3435,-4.3424,-4.3435,-4.3494,-4.3544,-4.3552,-4.3545,-4.3515,-4.3545,-4.3552,-4.3529,-4.3631,-4.3596,-4.3608,-4.365,-4.3752,-4.3759,-4.3765,-4.3814,-4.3827,-4.3839,0,0,0,0,0,0,-4.3417,-4.3437,-4.3425,-4.3496,-4.3519,-4.3537,-4.3575,-4.3559,-4.359,-4.3584,-4.3574,-4.3579,-4.3644,-4.3654,-4.3615,-4.3729,-4.3687,-4.3696,-4.372,-4.3733,-4.3743,-4.3738,-4.357,0,0,0,0,0,-4.3435,-4.3475,-4.3491,-4.3552,-4.3565,-4.3568,-4.359,-4.3583,-4.3606,-4.3615,-4.3626,-4.3649,-4.3686,-4.371,-4.3745,-4.3821,-4.3825,-4.3856,-4.3867,-4.3875,-4.3882,-4.3924,-4.3937,-4.379,-4.379,-4.379,0,0,-4.3472,-4.3489,-4.3514,-4.3562,-4.3579,-4.362,-4.3576,-4.3622,-4.3652,-4.3622,-4.368,-4.369,-4.3715,-4.3784,-4.3815,-4.3794,-4.3925,-4.3883,-4.389,-4.3893,-4.3932,-4.3946,-4.3958,-4.3794,-4.3793,-4.3793,0,0,-4.3561,-4.3579,-4.3632,-4.365,-4.3677,-4.368,-4.3693,-4.3715,-4.372,-4.378,-4.3758,-4.3795,-4.3858,-4.3877,-4.3895,-4.3996,-4.3976,-4.4008,-4.4061,-4.4101,-4.4113,-4.4123,-4.4158,-4.4171,-4.4015,-4.4015,-4.4016,0,-4.3604,-4.3666,-4.3661,-4.3708,-4.373,-4.3707,-4.376,-4.3779,-4.3815,-4.3831,-4.3808,-4.3889,-4.3904,-4.3977,-4.4002,-4.4018,-4.4032,-4.4003,-4.4112,-4.4122,-4.4132,-4.4165,-4.4178,-4.4019,-4.4019,-4.4018,-4.4018,0,-4.3717,-4.3761,-4.38,-4.3838,-4.3864,-4.3915,-4.3917,-4.3945,-4.3937,-4.3942,-4.4004,-4.4022,-4.406,-4.4078,-4.407,-4.4151,-4.4137,-4.4113,-4.407,-4.4149,-4.418,-4.4193,-4.4024,-4.4023,-4.4022,-4.4021,0,0,-4.3831,-4.3868,-4.3882,-4.3899,-4.3929,-4.3963,-4.4013,-4.4052,-4.4076,-4.4103,-4.4144,-4.4201,-4.418,-4.4201,-4.4195,-4.4231,-4.431,-4.4203,-4.4204,-4.4221,-4.44,-4.4415,-4.443,-4.4298,-4.4301,-4.4303,-4.4397,0,-4.392,-4.4008,-4.4006,-4.4087,-4.4128,-4.4109,-4.4153,-4.4176,-4.4183,-4.4219,-4.4227,-4.4267,-4.4236,-4.4249,-4.4284,-4.4293,-4.4345,-4.4286,-4.4335,-4.4337,-4.4327,-4.4447,-4.4463,-4.4551,-4.4409,-4.4411,-4.4413,0,-4.4035,-4.4068,-4.4153,-4.4179,-4.4196,-4.4236,-4.4272,-4.4307,-4.4333,-4.4336,-4.4361,-4.4351,-4.4402,-4.4361,-4.4431,-4.4392,-4.4412,-4.442,-4.4424,-4.4425,-4.4378,-4.445,-4.4579,-4.4591,-4.4432,-4.4431,-4.4429,0,-4.4108,-4.4174,-4.4234,-4.4249,-4.4281,-4.431,-4.4324,-4.4349,-4.4373,-4.4405,-4.4421,-4.4458,-4.4478,-4.4508,-4.4508,-4.4478,-4.458,-4.4538,-4.4583,-4.4583,-4.4602,-4.46,-4.4734,-4.462,-4.462,-4.462,-4.4619,0,-4.4206,-4.4259,-4.4267,-4.4303,-4.4363,-4.4362,-4.442,-4.4432,-4.4455,-4.4493,-4.448,-4.4516,-4.4516,-4.4553,-4.4555,-4.4613,-4.4622,-4.4625,-4.4624,-4.4625,-4.4624,-4.4636,-4.4629,-4.4623,-4.4622,-4.4622,-4.4621,0,-4.4295,-4.4303,-4.4367,-4.4394,-4.4402,-4.4444,-4.4466,-4.4502,-4.451,-4.4559,-4.457,-4.4582,-4.4626,-4.463,-4.4681,-4.4682,-4.4751,-4.4745,-4.4742,-4.474,-4.4784,-4.4779,-4.4928,-4.4947,-4.4823,-4.4824,-4.4825,0,-4.4356,-4.4397,-4.4428,-4.4454,-4.4471,-4.4512,-4.4537,-4.4539,-4.4565,-4.4601,-4.4632,-4.4675,-4.4708,-4.4779,-4.4792,-4.4831,-4.4824,-4.4874,-4.4829,-4.4829,-4.4823,-4.4819,-4.4823,-4.4881,-4.4882,-4.4884,-4.4884,0,-4.4463,-4.4465,-4.4503,-4.4542,-4.4573,-4.4604,-4.4633,-4.4655,-4.466,-4.4691,-4.4737,-4.4763,-4.4816,-4.4859,-4.4898,-4.4912,-4.4899,-4.4899,-4.4911,-4.491,-4.4906,-4.4908,-4.4763,-4.4895,-4.4894,-4.4893,-4.4892,-4.4892,-4.4538,-4.4574,-4.4602,-4.4645,-4.4668,-4.4696,-4.473,-4.4744,-4.4782,-4.4825,-4.4824,-4.4874,-4.4902,-4.4953,-4.4972,-4.5011,-4.4994,-4.5012,-4.5016,-4.5019,-4.5023,-4.4903,-4.5018,-4.5018,-4.5017,-4.5017,-4.5017,0,-4.4642,-4.4661,-4.47,-4.4742,-4.4776,-4.4764,-4.4796,-4.4825,-4.4869,-4.4897,-4.4932,-4.4984,-4.5026,-4.5044,-4.5085,-4.5113,-4.5108,-4.5124,-4.512,-4.5124,-4.5036,-4.5021,-4.5127,-4.5127,-4.5127,-4.5127,-4.5127,-4.5127,-4.47,-4.476,-4.4767,-4.4838,-4.4856,-4.4905,-4.4924,-4.4951,-4.4973,-4.5033,-4.5068,-4.508,-4.5104,-4.5148,-4.5186,-4.519,-4.5205,-4.5223,-4.5224,-4.5141,-4.513,-4.5119,-4.5104,-4.5227,-4.5227,-4.5308,-4.5309,-4.5309]},{"header":{"parameterUnit":"m.s-1","parameterCategory":1,"la1":30.2991,"la2":30.254,"lo1":-89.0895,"lo2":-89.0444,"dx":0.0017,"dy":0.0017,"nx":28,"ny":28,"refTime":"2022-12-29T09:00:00:Z","depth":0,"parameterNumber":3,"parameterNumberName":"V-component_of_WINDS"},"data":[0,0,0,0,0,0,0,0,0,0,0,0,0,0,0,0,0,0,0,0,0,0,0,0,0,0,0,0,0,0,0,0,0,0,0,0,0,0,0,0,0,0,0,0,0,0,0,0,0,0,0,0,0,0,0,0,0,0,2.6635,2.6635,0,2.6665,2.6665,2.6665,2.67,2.67,2.6701,2.6701,2.6731,2.6732,2.6732,0,0,0,0,0,0,0,0,0,0,0,0,0,2.661,2.661,2.6635,2.6635,2.6635,2.6665,2.6665,2.6665,2.67,2.67,2.6701,2.6702,2.6731,2.6731,2.6732,0,0,0,0,0,0,0,0,0,0,0,0,0,2.6628,2.661,2.6635,2.6656,2.6658,2.6665,2.6665,2.6666,2.67,2.67,2.6701,2.6702,2.6731,2.6731,2.6732,2.6719,0,0,2.6733,2.6734,0,0,0,0,0,0,0,0,2.6627,2.6629,2.6653,2.6655,2.6657,2.6679,2.6667,2.6683,2.6699,2.6684,2.6701,2.6702,2.6713,2.6715,2.6719,2.672,2.6722,2.6733,2.6734,2.6734,2.6734,0,0,0,0,0,0,0,2.6626,2.6628,2.6647,2.6653,2.6656,2.6665,2.6669,2.667,2.6694,2.6685,2.6688,2.6691,2.6715,2.6719,2.672,2.6722,2.6733,2.6734,2.6734,2.6734,2.672,2.6719,0,0,0,0,0,0,2.6621,2.6627,2.6646,2.6647,2.6644,2.6665,2.6669,2.6671,2.6694,2.6698,2.669,2.6693,2.6717,2.6719,2.6721,2.6711,2.6734,2.6734,2.6735,2.6721,2.672,2.6719,0,0,0,0,0,0,2.662,2.6622,2.6644,2.6638,2.6641,2.6665,2.6667,2.6672,2.6676,2.6698,2.6702,2.669,2.6718,2.6721,2.6721,2.6712,2.6734,2.6735,2.6721,2.672,2.6719,2.6688,0,0,0,0,0,0,2.662,2.6622,2.6616,2.6637,2.6642,2.6642,2.6667,2.6672,2.6676,2.6679,2.6698,2.6702,2.6719,2.672,2.6721,2.6713,2.6735,2.6722,2.6721,2.672,2.669,2.6686,2.6683,0,0,0,0,0,2.6619,2.6605,2.6616,2.6618,2.6635,2.6641,2.6644,2.6663,2.6675,2.6671,2.6686,2.6702,2.6713,2.6719,2.6721,2.6713,2.6723,2.6721,2.672,2.6691,2.6687,2.6683,0,0,0,0,0,0,2.6581,2.6608,2.662,2.6613,2.6625,2.6647,2.6642,2.6657,2.6665,2.6668,2.6692,2.6696,2.6694,2.6704,2.671,2.6705,2.6721,2.6719,2.6698,2.6694,2.669,2.6688,2.6736,0,0,0,0,0,2.6572,2.6574,2.6598,2.659,2.6595,2.6618,2.6621,2.6636,2.6649,2.6654,2.6668,2.6681,2.6688,2.6691,2.6698,2.6692,2.6698,2.6688,2.6684,2.6681,2.668,2.6681,2.6677,2.6714,2.6714,2.6714,0,0,2.6552,2.6568,2.6568,2.6583,2.6593,2.6597,2.6621,2.6623,2.6626,2.6654,2.6655,2.6667,2.6683,2.6681,2.668,2.6689,2.6672,2.6679,2.6677,2.6677,2.6679,2.6676,2.6672,2.6713,2.6713,2.6714,0,0,2.652,2.6531,2.6527,2.6538,2.6556,2.6571,2.6571,2.6592,2.6601,2.6603,2.6625,2.663,2.664,2.6652,2.6659,2.6637,2.6653,2.6638,2.662,2.662,2.6617,2.6615,2.6609,2.6607,2.6637,2.6637,2.6637,0,2.6494,2.65,2.6523,2.6525,2.6532,2.6559,2.6556,2.6566,2.6584,2.6589,2.6599,2.6616,2.6627,2.663,2.6625,2.6629,2.6631,2.6636,2.6616,2.6614,2.6612,2.6607,2.6604,2.6635,2.6635,2.6636,2.6636,0,2.6469,2.6473,2.6468,2.6487,2.6494,2.6493,2.6517,2.6521,2.6537,2.6552,2.6556,2.6573,2.6586,2.6587,2.6601,2.6593,2.6598,2.6611,2.6628,2.6606,2.6602,2.66,2.6633,2.6633,2.6634,2.6634,0,0,2.641,2.6445,2.6443,2.6454,2.6477,2.6481,2.6483,2.6497,2.6502,2.6515,2.6519,2.6529,2.6543,2.6551,2.6567,2.6568,2.6553,2.6582,2.6583,2.6577,2.6549,2.6539,2.6536,2.6564,2.6564,2.6563,2.6548,0,2.6383,2.6388,2.6411,2.6411,2.6417,2.6445,2.6448,2.6463,2.6478,2.6487,2.6504,2.6512,2.6528,2.6534,2.6536,2.6554,2.6547,2.6555,2.6569,2.6569,2.6565,2.6533,2.6522,2.6507,2.6546,2.6546,2.6546,0,2.6351,2.6364,2.6365,2.6392,2.6395,2.6397,2.6414,2.6421,2.644,2.6452,2.6463,2.6482,2.6489,2.6504,2.6515,2.652,2.6527,2.6537,2.6537,2.6539,2.6556,2.6536,2.6502,2.65,2.6543,2.6543,2.6543,0,2.6311,2.6329,2.6333,2.6341,2.6372,2.6373,2.6386,2.6406,2.6415,2.643,2.6436,2.6451,2.6459,2.6471,2.6495,2.6504,2.6504,2.6521,2.6515,2.6515,2.6513,2.6513,2.6481,2.6516,2.6516,2.6517,2.6517,0,2.6279,2.6278,2.6316,2.6318,2.632,2.6347,2.6348,2.6364,2.6383,2.639,2.6415,2.6421,2.6452,2.6462,2.6481,2.6488,2.6491,2.6502,2.6507,2.65,2.6499,2.6505,2.6507,2.6516,2.6516,2.6516,2.6516,0,2.6234,2.6259,2.6265,2.6295,2.6303,2.6303,2.633,2.6334,2.6353,2.6362,2.6366,2.6395,2.6409,2.6434,2.6454,2.6467,2.6472,2.6479,2.6465,2.6468,2.6462,2.6463,2.6433,2.6432,2.6467,2.6467,2.6466,0,2.6212,2.6213,2.6244,2.6251,2.6264,2.6274,2.6284,2.6313,2.6322,2.6347,2.6349,2.6365,2.638,2.6401,2.6425,2.6442,2.6451,2.644,2.6453,2.6448,2.6453,2.6453,2.6455,2.6436,2.6436,2.6435,2.6435,0,2.6171,2.6184,2.6197,2.6216,2.6227,2.6243,2.6259,2.6264,2.6297,2.6306,2.6322,2.6333,2.6356,2.6373,2.6394,2.6409,2.6428,2.6431,2.6431,2.6424,2.6416,2.6422,2.6458,2.6431,2.6431,2.6432,2.6432,2.6432,2.6138,2.6142,2.6166,2.618,2.6197,2.6213,2.622,2.6241,2.6254,2.6276,2.6292,2.6307,2.6331,2.6362,2.6376,2.6389,2.6397,2.6396,2.6397,2.6396,2.6395,2.6414,2.6393,2.6393,2.6393,2.6393,2.6393,0,2.61,2.6118,2.6131,2.6156,2.6168,2.6187,2.6208,2.6217,2.623,2.6251,2.6266,2.6285,2.6303,2.6329,2.635,2.6355,2.6365,2.636,2.636,2.6364,2.6385,2.6384,2.6352,2.6352,2.6352,2.6352,2.6352,2.6352,2.6082,2.609,2.6107,2.6125,2.6143,2.6159,2.617,2.6186,2.6203,2.6224,2.6239,2.6257,2.6281,2.6304,2.6322,2.6329,2.6336,2.6328,2.6339,2.6358,2.6362,2.6365,2.6364,2.6329,2.6329,2.6317,2.6317,2.6317]}]]